CLUSTER II-FM7 (SAMBA) (26410 NORAD) Tracking and Keplerian Element Data

This shows tracking and keplerian element data for the satellite.

Feedback or suggestion? Click here.




ElementValue
Catalog26410
NameCLUSTER II-FM7 (SAMBA)
Epoch Orbit1807
Epoch Day33.13187952
Epoch Year2025
RAAN5.4555
Inclination142.299
Eccentricity0.8065254
Argument of Perigee220.6874
Mean Anonmoly359.1092
Mean Motion0.44772996
Decay Rate1.507E-05
L11 26410U 00041A 25033.13187952 .00001507 00000+0 00000+0 0 9998
L22 26410 142.2990 5.4555 8065254 220.6874 359.1092 0.44772996 18078



Live tracking and technical data element details for CLUSTER II-FM7 (SAMBA) (NORAD 26410). CLUSTER II-FM7 (SAMBA) can be tracked NOW for your location showing map with azimuth and elevation plus other details from your city location.







IsCatalogInMostPopularTable: catalog: 26410, numindb: 593
Update: records affected: 1



GetName: 26410 CLUSTER II-FM7 (SAMBA)

Hit Count: updated at: Fri, 16 May 2025 11:57:58 GMT